Temperature
22 22 21 21 22 22 23 24 25 25 25 25 25 25 24 23 21 19 19 19 19 18 18 18 18 18 17 17 17 17 17 18 18 18 18 18 18 18 18 18 18 18 18 18 18 18 18 18 18
22 21 22 22 22 22 23 24 24 25 25 25 25 24 24 22 21 19 19 19 19 18 18 18 18 17 17 17 17 17 17 17 18 17 17 17 17 17 18 18 18 18 18 18 18 18 18 18 18
22 22 22 23 23 23 23 24 24 25 25 25 24 24 23 22 20 19 19 19 19 18 18 18 18 17 17 17 17 17 17 17 17 17 17 17 17 17 17 18 18 17 17 17 18 18 18 18 18
22 22 24 24 24 25 25 25 25 25 25 25 24 23 22 21 20 19 19 19 18 18 18 18 18 17 17 17 17 17 17 17 17 17 17 17 17 17 17 17 17 17 17 17 17 17 17 18 18
22 23 23 24 24 25 26 26 26 25 25 25 24 23 21 20 20 20 19 19 19 18 18 18 18 18 17 17 17 17 17 17 17 17 17 17 17 17 17 17 17 17 17 17 17 17 17 17 17
23 24 23 23 24 25 26 26 26 25 25 25 24 23 21 20 20 20 20 19 19 18 18 18 18 18 18 17 17 17 17 17 17 17 17 17 17 17 17 17 17 17 17 17 17 17 17 17 17
24 24 24 24 24 25 26 26 26 25 25 25 24 23 21 20 20 20 20 19 19 18 18 18 18 18 18 18 17 17 17 17 17 17 17 17 17 17 17 17 17 17 17 17 17 17 17 17 17
24 24 24 24 24 24 26 26 25 25 25 24 24 23 21 20 20 20 20 19 19 19 18 18 18 18 18 18 17 17 17 17 17 17 17 17 17 17 17 17 17 17 17 17 17 17 17 17 17
25 24 23 24 24 25 26 25 25 25 24 24 24 23 21 21 20 20 20 19 19 19 19 18 18 18 18 18 17 17 17 17 17 17 17 17 17 17 17 17 17 16 16 16 17 17 17 16 16
25 23 24 25 26 25 26 26 25 25 24 24 23 22 21 21 20 20 20 20 19 19 19 19 18 18 18 18 17 17 17 17 17 17 17 17 17 17 16 16 16 16 16 16 16 16 16 16 16
26 24 25 26 26 26 25 25 25 25 24 24 23 22 21 21 21 20 20 20 19 19 19 19 19 18 18 18 17 17 17 17 17 17 17 17 17 17 16 16 16 16 16 16 16 16 16 16 16
26 26 26 26 25 25 25 25 25 24 24 24 23 22 22 21 21 21 20 20 19 19 19 19 19 19 18 18 18 17 17 17 17 17 17 17 17 17 16 16 16 16 16 16 16 16 16 16 16
25 26 26 25 25 25 25 25 24 24 24 23 23 22 22 22 21 21 21 20 19 19 19 19 19 19 18 18 18 17 17 17 17 17 17 17 17 17 16 16 16 16 16 16 16 16 16 16 16
26 26 26 25 25 25 25 25 24 24 24 24 23 23 22 22 22 21 21 20 20 19 19 19 19 19 18 18 18 18 17 17 17 17 17 17 17 17 16 16 16 16 16 16 16 16 16 16 16
26 25 25 25 25 25 24 23 24 24 24 24 23 23 22 22 22 21 21 20 20 20 19 19 19 18 18 18 18 18 17 17 17 17 17 17 17 17 16 16 16 16 16 16 16 16 15 15 15
26 25 24 25 25 25 24 22 24 24 24 24 23 23 22 22 22 21 21 20 20 20 19 19 19 18 18 18 18 18 17 17 17 17 17 17 17 16 16 16 16 16 16 16 15 15 15 15 15
25 24 24 25 26 26 24 23 24 24 24 24 24 23 22 22 22 21 21 21 20 20 19 19 19 18 18 18 18 17 17 17 17 17 17 17 17 16 16 16 16 16 16 15 15 15 15 15 15
24 24 25 25 26 25 24 23 24 24 24 24 24 23 23 22 22 21 21 21 20 20 20 19 19 18 18 18 18 17 17 17 17 17 17 17 16 16 16 16 16 15 15 15 15 15 15 15 15
25 25 25 25 26 25 24 24 24 24 24 23 23 23 23 22 22 21 21 20 20 20 20 19 19 18 18 18 17 17 17 17 17 16 16 16 16 16 16 16 15 15 15 15 15 15 15 15 15
25 24 25 25 26 25 24 24 24 24 24 23 23 23 23 22 22 21 21 20 20 20 20 19 19 18 18 18 17 17 17 17 16 16 16 16 16 16 16 15 15 15 15 15 15 15 15 15 15
25 24 25 25 25 25 24 23 24 24 24 23 23 23 23 22 22 21 20 20 20 20 20 19 19 19 18 18 17 17 17 16 16 16 16 16 16 16 16 15 15 15 15 15 15 14 14 14 14
24 25 25 25 24 23 24 22 23 24 23 23 23 23 22 22 21 21 20 20 20 19 19 19 19 19 18 18 17 17 17 16 16 16 16 16 16 16 15 15 15 15 15 14 14 14 14 14 14
25 25 25 24 23 23 24 23 23 24 23 23 23 23 22 22 21 21 20 20 19 19 19 19 19 19 18 18 17 17 16 16 16 16 15 15 15 15 15 15 15 15 15 14 14 14 14 14 14
25 25 24 24 23 22 24 23 22 23 23 24 23 23 22 22 21 20 20 19 19 19 19 19 19 18 18 18 17 17 17 16 16 16 15 15 15 15 15 15 15 15 14 14 14 14 14 14 14
24 23 22 22 21 22 25 24 23 24 25 24 23 23 22 22 21 20 20 19 19 19 18 18 18 18 18 17 17 17 16 16 16 16 15 15 15 15 15 15 15 14 14 14 14 14 14 14 13
24 23 22 21 22 23 24 23 23 25 25 24 24 23 22 21 21 20 20 19 19 18 18 18 18 17 17 17 17 17 16 16 16 16 15 15 15 15 15 14 14 14 14 14 14 14 14 14 13
23 23 24 23 23 23 23 23 24 24 24 24 23 23 22 21 21 20 20 19 19 18 18 17 17 17 17 17 17 16 16 16 16 16 15 15 15 15 15 14 14 14 14 14 14 13 13 13 13
24 23 23 23 22 22 23 23 22 22 23 23 23 22 22 21 21 20 20 19 19 18 18 17 17 17 17 16 16 16 16 16 16 15 15 15 15 15 15 14 14 14 14 14 14 13 13 13 13
23 23 23 23 23 22 21 22 24 23 23 23 22 22 21 21 20 20 19 19 19 18 18 17 17 17 16 16 16 16 16 16 16 15 15 15 15 15 14 14 14 14 13 13 13 13 13 13 13
23 23 22 21 22 22 22 21 24 23 23 23 22 22 21 21 20 19 19 19 18 18 17 17 17 16 16 16 16 16 16 16 15 15 15 15 15 14 14 14 14 14 13 13 13 13 13 12 12
Wind_Speed
9 10 8 2 2 1 4 5 7 6 7 9 8 8 11 12 8 8 3 4 8 11 12 12 11 11 11 11 11 11 11 12 11 11 11 11 12 12 12 12 11 11 11 11 11 12 11 11 11
9 6 4 3 2 2 4 5 8 8 7 6 7 10 11 12 11 8 4 4 9 11 12 11 11 11 11 11 11 11 12 12 12 12 11 11 12 12 12 11 11 11 12 11 11 11 11 10 10
10 7 4 3 1 4 5 7 7 7 4 6 8 10 9 8 9 6 5 6 10 12 13 12 11 11 11 11 11 11 11 12 12 12 12 12 12 11 11 11 11 11 12 12 11 10 10 9 9
5 4 3 1 4 6 6 6 6 6 5 6 8 9 9 9 7 8 7 8 11 12 13 12 12 12 11 11 11 11 12 12 12 12 12 12 11 12 11 11 11 11 12 12 11 10 9 9 9
4 3 2 2 5 6 6 6 6 5 5 8 11 11 9 9 10 9 7 9 10 11 13 13 13 12 12 11 11 11 11 11 12 12 12 12 13 13 12 12 12 12 11 11 11 10 9 9 9
3 2 1 2 5 6 5 4 5 6 6 6 10 11 8 8 8 7 7 8 9 11 12 13 13 13 12 12 11 11 11 11 11 11 11 12 13 13 13 13 12 12 12 11 11 10 9 10 9
3 2 1 3 5 4 5 4 6 6 6 5 7 9 8 8 7 7 7 8 8 8 10 11 12 12 12 11 11 10 10 10 9 10 10 11 11 12 13 12 12 12 12 12 11 11 10 10 9
3 2 1 3 4 3 4 5 6 6 6 5 4 7 8 8 7 8 8 8 7 7 7 8 10 11 11 10 10 9 9 8 8 7 8 9 10 10 12 12 11 11 11 11 11 10 9 9 8
3 1 1 2 3 4 5 5 5 5 6 6 8 10 11 11 9 8 7 7 6 6 6 6 7 8 9 10 10 9 8 7 6 5 5 6 6 8 9 11 10 10 9 8 8 8 7 7 6
1 0 1 2 3 4 4 4 4 4 6 6 9 12 12 10 9 8 7 6 6 6 6 5 6 6 6 7 8 6 6 6 4 5 5 4 6 8 9 9 8 8 7 6 5 4 4 3 3
1 0 1 2 3 3 3 3 3 4 4 5 8 11 11 9 8 7 7 7 6 5 4 5 5 6 6 3 4 3 4 4 4 4 6 6 6 6 7 5 5 5 4 2 2 2 1 3 4
1 0 2 2 3 1 1 2 3 3 3 5 7 11 10 9 8 7 7 8 7 6 4 3 4 5 6 4 2 3 3 2 2 3 6 5 3 2 3 3 4 4 3 2 2 1 3 5 6
1 1 1 2 2 0 0 2 3 3 4 5 7 10 9 8 8 8 8 8 8 6 5 4 4 4 5 4 2 4 3 2 3 2 4 5 3 2 3 3 3 3 3 2 2 3 4 4 5
1 1 2 2 3 2 1 1 3 4 5 6 7 8 8 7 7 7 8 8 8 7 6 5 4 4 5 4 3 3 3 3 3 2 3 5 3 3 3 3 3 3 3 3 3 3 3 3 3
2 2 3 3 4 3 2 2 4 6 7 7 7 7 7 7 6 6 7 7 7 7 7 6 4 4 5 4 4 3 2 3 2 2 3 5 4 4 4 3 3 2 4 5 4 4 3 3 4
5 5 4 5 5 5 4 4 4 8 8 7 7 8 8 7 7 6 7 7 7 7 8 7 4 4 4 4 3 2 2 3 2 3 3 5 6 6 4 3 3 3 4 3 3 3 3 3 4
7 6 5 5 6 5 5 3 4 6 7 7 7 8 9 8 7 7 7 7 7 7 8 8 6 4 5 4 3 2 3 3 2 3 3 4 5 6 4 2 2 4 3 3 3 4 3 3 3
5 5 5 5 6 6 5 4 4 5 5 5 5 6 8 8 7 7 7 7 7 6 7 8 6 5 5 3 2 3 3 2 2 3 3 4 4 5 4 2 3 4 3 3 3 3 3 2 2
6 6 5 3 3 4 4 5 5 6 5 5 5 5 7 7 7 7 7 7 7 6 5 7 7 6 5 2 2 3 2 2 2 2 3 3 3 4 3 3 3 3 3 3 3 3 3 2 2
8 7 6 3 2 3 4 4 4 6 7 5 6 6 6 7 7 7 7 7 6 6 5 6 6 6 6 3 3 3 3 3 2 2 2 2 3 4 3 3 3 3 3 4 3 3 2 1 1
9 8 6 4 4 5 5 5 7 8 8 6 5 5 6 8 8 8 7 7 6 5 5 5 6 6 6 5 3 3 3 3 2 2 1 1 3 2 2 3 3 3 3 2 2 2 2 1 2
7 5 6 6 6 5 7 5 6 8 8 8 7 6 6 7 7 8 7 7 6 6 5 4 5 6 6 6 4 4 4 3 3 2 1 2 2 2 3 3 2 3 2 2 1 2 1 2 1
6 5 7 8 7 9 8 6 4 7 8 9 8 7 5 5 7 8 8 8 7 6 4 3 4 5 6 6 5 4 4 3 3 3 3 2 2 2 3 3 2 2 2 2 2 2 2 1 1
6 7 9 8 7 9 10 7 3 4 6 7 8 8 7 6 6 7 7 7 6 6 5 3 4 4 5 6 6 5 5 4 4 3 3 2 2 1 2 2 2 2 2 2 2 2 2 2 2
8 7 4 5 6 7 6 4 2 3 4 5 6 7 7 7 7 7 8 8 6 6 5 4 4 4 5 5 5 5 5 5 5 4 3 3 2 2 2 2 1 2 2 2 2 2 2 1 1
7 8 5 4 4 3 3 2 3 4 5 5 5 6 6 7 7 7 7 7 7 7 6 5 4 4 4 4 4 4 5 4 4 4 4 3 3 3 3 3 2 2 2 2 2 1 1 1 2
7 8 8 8 9 7 4 3 3 4 4 4 4 5 6 6 7 7 7 7 7 8 7 6 5 5 4 3 3 3 4 5 4 4 4 3 2 2 3 3 3 3 2 2 2 1 1 1 2
8 7 6 6 5 6 4 4 3 5 4 3 3 4 4 5 5 6 7 8 7 7 7 7 6 5 4 4 3 2 3 4 4 4 4 3 3 3 3 3 3 3 3 2 2 2 1 2 1
7 7 7 6 6 5 4 0 2 3 3 3 2 3 3 4 4 4 5 6 7 7 7 6 6 5 4 4 4 3 3 3 3 4 3 3 3 3 3 3 3 3 3 3 2 1 0 1 1
7 7 7 6 6 6 5 1 2 3 3 2 1 2 3 4 4 3 4 6 7 7 7 6 5 5 4 4 4 4 3 3 3 3 3 3 3 3 3 3 2 2 2 2 3 2 1 1 1
Wind_Direction
257 242 243 249 267 233 65 60 69 58 55 51 44 53 57 51 54 88 106 83 92 95 96 84 75 76 74 72 71 68 67 66 66 67 66 67 69 70 70 67 64 65 68 70 72 77 77 78 77
271 265 262 240 243 98 73 74 70 64 61 65 60 62 65 66 75 96 108 96 95 93 88 85 84 81 77 75 73 69 69 68 69 70 69 71 72 72 71 71 69 67 68 73 75 77 79 80 79
261 265 260 254 36 82 85 82 85 81 72 79 74 64 56 69 79 104 127 113 95 92 93 93 93 88 83 79 75 72 71 71 70 70 71 73 74 76 76 74 74 73 72 74 76 78 79 79 77
261 258 249 258 70 74 94 102 101 94 77 76 82 77 67 66 86 112 128 112 102 101 100 101 99 95 89 83 79 77 74 73 71 72 72 73 75 77 78 79 78 76 76 77 73 72 77 77 75
244 254 257 106 92 88 82 92 97 96 81 83 91 92 85 78 93 106 109 104 105 107 109 110 107 102 97 91 85 80 78 78 76 75 76 76 76 76 76 78 79 79 77 76 74 70 75 74 69
262 241 243 100 93 85 81 91 97 85 78 81 101 102 98 102 101 106 101 98 103 110 116 118 117 111 105 99 92 87 84 82 82 80 81 82 81 79 77 78 79 81 79 79 74 72 82 78 70
270 276 192 107 94 88 85 76 74 82 80 70 97 107 111 116 118 117 110 106 106 114 122 130 130 122 114 108 102 97 95 93 92 89 89 92 91 89 86 82 80 81 81 82 77 75 78 71 66
289 305 358 102 104 97 86 79 73 73 76 68 71 104 124 128 128 121 115 113 114 116 119 125 131 129 126 121 120 119 115 114 113 111 108 108 104 101 96 88 86 87 86 85 80 76 76 70 65
289 308 358 74 109 113 120 110 98 94 96 85 73 90 120 126 131 128 123 119 115 111 114 121 121 122 126 128 127 138 140 138 136 136 136 137 124 111 103 98 98 95 93 93 90 86 84 77 65
222 287 58 65 103 119 120 117 126 126 115 106 102 105 121 133 138 136 131 124 121 120 120 120 124 120 115 116 136 148 132 148 152 130 128 121 94 100 104 112 111 107 104 101 102 100 95 97 88
180 202 57 58 71 90 112 109 107 125 110 115 125 128 130 141 144 142 132 126 119 116 111 122 123 117 109 102 122 115 115 127 118 118 111 101 102 110 116 128 129 127 123 120 111 128 123 93 84
218 92 86 90 85 102 115 113 106 102 99 112 128 135 142 153 146 139 130 126 123 116 115 108 114 115 118 116 118 119 111 107 90 77 95 93 91 95 98 106 120 120 115 102 103 106 78 74 76
183 184 150 119 111 95 125 125 124 128 125 129 129 136 145 149 146 142 135 132 129 131 135 118 110 113 109 110 129 110 100 95 99 77 96 98 88 91 90 87 88 94 101 88 58 64 64 60 64
175 154 145 157 159 166 153 176 170 161 157 147 141 148 151 148 145 141 139 140 138 141 134 117 122 115 112 119 115 98 104 111 103 94 100 101 97 83 79 79 75 71 71 79 74 67 62 60 67
190 194 204 206 200 180 170 253 214 171 171 163 159 153 149 147 147 149 145 146 142 141 130 120 132 119 112 105 94 95 101 96 88 99 90 100 94 90 82 75 77 71 65 62 62 59 59 62 65
216 221 219 206 205 187 206 232 201 174 176 172 172 161 157 154 161 160 150 149 145 141 132 131 137 125 114 107 109 108 98 87 82 77 70 87 87 79 73 63 66 72 64 66 63 51 54 56 61
225 231 226 202 202 199 201 221 196 174 182 181 184 171 162 164 168 160 153 148 144 147 143 145 141 135 115 113 122 106 97 93 90 74 64 69 76 87 86 72 69 75 66 56 63 57 55 60 64
238 244 243 220 191 204 203 214 194 188 186 190 189 177 165 166 167 156 155 148 143 148 149 145 141 137 123 123 122 100 97 98 85 81 70 72 75 83 89 83 74 79 76 65 68 73 65 61 64
269 267 263 251 194 215 218 225 202 182 191 196 189 192 172 169 162 153 149 144 146 147 151 145 145 142 128 129 118 118 113 101 89 97 82 85 91 90 82 71 76 71 74 75 75 72 81 59 64
268 267 263 261 245 254 239 237 217 193 195 209 200 196 181 167 158 155 153 150 157 160 166 151 153 154 142 142 139 139 127 124 108 96 111 97 88 91 100 102 92 84 74 66 68 71 64 28 42
251 260 265 268 261 255 250 239 224 191 189 194 208 201 191 173 166 163 162 160 156 161 179 167 157 147 138 142 127 121 104 93 93 107 115 104 101 105 107 104 104 109 101 99 93 92 87 52 5
259 272 279 268 266 256 237 252 225 191 182 185 195 203 198 173 164 164 163 159 167 175 185 168 154 148 141 138 135 137 135 142 158 144 145 122 108 104 92 104 105 100 102 114 115 90 97 95 30
278 294 274 266 264 269 247 249 234 176 183 190 188 191 185 173 165 166 164 167 171 169 170 168 151 144 133 138 146 148 144 152 142 134 143 139 125 123 111 101 89 97 101 97 81 86 62 72 78
269 270 262 252 251 257 245 240 242 192 184 178 176 184 176 168 159 162 160 161 163 156 159 163 142 137 135 140 148 154 155 151 142 138 144 150 141 135 119 108 106 107 107 100 94 94 73 58 56
247 252 254 232 226 244 232 223 205 143 143 155 170 173 166 164 168 166 160 161 164 158 156 153 149 147 144 151 157 163 160 163 163 160 165 158 150 149 142 119 134 113 116 120 119 113 128 118 106
254 254 256 269 263 260 231 222 144 121 119 137 155 163 159 162 170 168 163 162 161 163 162 160 161 156 154 166 168 165 158 159 161 168 160 163 158 171 163 156 144 120 113 115 120 113 147 151 143
257 255 261 274 280 277 231 194 159 115 127 143 153 153 158 163 165 168 167 169 167 167 164 163 166 163 160 164 170 163 156 154 157 162 152 152 153 166 147 142 138 127 115 96 105 123 107 94 90
254 280 272 259 270 270 251 226 175 164 152 143 146 143 156 158 157 168 171 172 172 166 162 161 166 165 164 165 174 162 146 146 150 149 149 162 156 152 148 152 149 134 130 114 95 83 60 80 83
232 243 258 267 266 272 278 7 86 125 129 151 153 141 147 159 161 160 165 169 162 155 157 162 170 170 169 176 172 154 142 136 137 139 147 158 153 154 145 135 126 137 143 125 120 131 118 133 167
256 251 254 259 273 274 277 243 100 108 117 126 144 125 132 134 132 144 157 159 155 157 162 168 172 175 174 173 167 152 146 144 135 139 151 153 144 140 133 127 132 140 130 126 134 160 186 198 184
Height
1483 1484 1484 1486 1487 1489 1491 1486 1482 1483 1483 1485 1485 1485 1489 1492 1497 1509 1509 1507 1506 1505 1504 1504 1503 1503 1503 1503 1503 1503 1503 1503 1504 1504 1504 1504 1504 1505 1505 1506 1506 1507 1507 1508 1508 1509 1510 1511 1512
1484 1485 1487 1486 1489 1497 1494 1485 1485 1486 1486 1487 1487 1489 1491 1496 1500 1505 1506 1507 1507 1506 1505 1505 1504 1505 1505 1505 1505 1505 1505 1505 1505 1505 1506 1506 1506 1507 1507 1507 1508 1508 1508 1509 1509 1510 1511 1512 1512
1484 1486 1487 1484 1486 1493 1494 1486 1486 1487 1487 1487 1489 1492 1496 1500 1503 1505 1507 1508 1508 1507 1506 1506 1506 1506 1506 1506 1507 1507 1507 1507 1507 1507 1507 1508 1508 1508 1508 1509 1509 1509 1510 1510 1511 1511 1512 1513 1513
1486 1487 1485 1485 1489 1485 1484 1485 1485 1487 1488 1488 1490 1495 1501 1503 1505 1506 1507 1508 1508 1508 1507 1507 1507 1507 1508 1508 1508 1508 1508 1509 1509 1509 1509 1509 1509 1510 1510 1510 1510 1511 1511 1511 1512 1513 1513 1514 1514
1487 1486 1487 1488 1487 1483 1482 1484 1485 1487 1488 1489 1492 1498 1503 1506 1506 1507 1508 1509 1509 1509 1509 1509 1509 1509 1509 1510 1510 1510 1510 1510 1510 1511 1511 1511 1511 1511 1511 1511 1512 1512 1512 1512 1513 1513 1514 1514 1515
1487 1484 1491 1494 1488 1484 1484 1485 1486 1488 1489 1491 1493 1498 1505 1507 1507 1509 1509 1510 1511 1511 1510 1510 1511 1511 1511 1511 1512 1512 1512 1512 1512 1512 1513 1513 1513 1513 1513 1513 1513 1513 1513 1514 1514 1513 1515 1515 1516
1487 1485 1489 1489 1490 1488 1486 1486 1487 1489 1491 1492 1494 1498 1505 1507 1508 1509 1510 1511 1512 1512 1512 1512 1512 1513 1513 1513 1514 1514 1514 1514 1514 1514 1514 1515 1515 1515 1515 1515 1515 1515 1515 1515 1515 1515 1516 1516 1517
1485 1485 1486 1487 1491 1491 1487 1488 1490 1491 1493 1495 1495 1498 1504 1507 1509 1510 1511 1512 1513 1514 1514 1514 1514 1514 1515 1515 1515 1516 1516 1516 1516 1517 1517 1517 1517 1517 1517 1517 1517 1517 1517 1517 1517 1517 1517 1518 1518
1486 1489 1492 1488 1489 1489 1488 1489 1491 1493 1494 1496 1497 1500 1503 1506 1509 1510 1512 1513 1514 1515 1515 1516 1516 1517 1517 1517 1517 1518 1518 1518 1518 1519 1519 1519 1519 1519 1519 1520 1519 1519 1519 1519 1519 1519 1520 1520 1520
1485 1491 1488 1484 1484 1486 1487 1489 1491 1493 1495 1497 1499 1502 1504 1507 1509 1510 1511 1513 1514 1515 1516 1517 1518 1518 1519 1519 1519 1519 1520 1520 1521 1521 1521 1521 1522 1522 1522 1522 1522 1521 1521 1521 1521 1521 1522 1522 1522
1484 1486 1484 1484 1485 1486 1488 1489 1491 1493 1495 1497 1499 1502 1505 1507 1508 1510 1511 1513 1515 1516 1517 1518 1519 1519 1520 1520 1521 1521 1522 1522 1522 1523 1523 1523 1523 1524 1524 1523 1523 1523 1523 1523 1523 1523 1523 1524 1524
1484 1484 1483 1485 1487 1488 1489 1490 1492 1493 1496 1497 1499 1501 1504 1506 1508 1510 1511 1513 1515 1516 1517 1518 1519 1520 1520 1521 1522 1522 1523 1523 1524 1524 1524 1524 1525 1525 1525 1525 1525 1525 1525 1525 1525 1525 1526 1526 1526
1485 1485 1485 1486 1488 1488 1489 1490 1492 1494 1496 1498 1499 1502 1504 1506 1508 1510 1511 1513 1515 1516 1517 1519 1519 1520 1521 1521 1522 1523 1524 1524 1524 1525 1525 1526 1526 1526 1526 1527 1527 1527 1527 1527 1527 1527 1527 1527 1527
1484 1484 1485 1486 1487 1489 1490 1491 1492 1494 1496 1497 1499 1501 1503 1505 1507 1509 1511 1513 1514 1516 1517 1518 1519 1520 1521 1522 1523 1524 1524 1525 1525 1526 1526 1526 1527 1527 1527 1528 1528 1528 1528 1528 1528 1528 1528 1528 1528
1484 1485 1486 1486 1486 1488 1490 1493 1491 1493 1494 1496 1498 1501 1503 1505 1507 1508 1510 1512 1514 1515 1517 1518 1520 1521 1522 1523 1523 1524 1525 1525 1526 1526 1527 1527 1527 1528 1528 1528 1528 1529 1529 1529 1529 1529 1529 1529 1529
1483 1486 1491 1485 1484 1486 1492 1498 1489 1491 1493 1495 1497 1499 1502 1504 1506 1508 1509 1511 1513 1515 1516 1518 1519 1521 1522 1523 1524 1525 1525 1526 1526 1527 1527 1528 1528 1528 1528 1528 1529 1529 1529 1529 1529 1530 1530 1530 1530
1485 1490 1489 1485 1481 1482 1487 1492 1488 1489 1491 1493 1495 1497 1499 1502 1504 1506 1508 1510 1512 1514 1515 1517 1519 1520 1521 1523 1524 1525 1525 1526 1527 1527 1527 1528 1528 1528 1529 1529 1529 1529 1529 1530 1530 1530 1530 1530 1531
1489 1487 1485 1484 1479 1481 1485 1488 1486 1487 1489 1491 1492 1494 1497 1500 1502 1504 1507 1509 1511 1513 1515 1516 1518 1519 1520 1522 1523 1524 1525 1526 1526 1527 1527 1528 1528 1529 1529 1529 1529 1530 1530 1530 1530 1530 1531 1531 1531
1479 1481 1483 1479 1475 1480 1484 1485 1483 1485 1487 1489 1491 1493 1495 1497 1500 1502 1505 1507 1510 1512 1514 1515 1517 1518 1519 1521 1522 1523 1524 1525 1526 1527 1527 1528 1528 1529 1529 1529 1529 1530 1530 1530 1530 1531 1531 1531 1532
1479 1482 1482 1478 1474 1478 1482 1483 1481 1482 1485 1487 1488 1490 1492 1495 1498 1501 1503 1505 1508 1510 1512 1514 1516 1517 1518 1520 1521 1522 1524 1525 1525 1526 1527 1527 1528 1528 1529 1529 1529 1530 1530 1530 1530 1531 1531 1531 1532
1479 1481 1481 1481 1477 1477 1482 1486 1481 1479 1481 1484 1486 1488 1490 1492 1495 1498 1501 1503 1506 1508 1510 1512 1514 1515 1517 1518 1520 1521 1522 1524 1524 1525 1526 1527 1527 1528 1528 1529 1529 1529 1530 1530 1530 1530 1531 1531 1532
1480 1474 1476 1478 1484 1486 1483 1494 1481 1475 1478 1480 1483 1486 1488 1490 1493 1496 1498 1501 1504 1506 1508 1510 1512 1513 1515 1516 1518 1519 1520 1522 1523 1524 1525 1526 1527 1528 1528 1528 1529 1529 1529 1530 1530 1530 1531 1531 1531
1476 1473 1475 1477 1482 1485 1480 1486 1482 1471 1477 1477 1479 1483 1485 1488 1491 1493 1496 1499 1502 1504 1506 1508 1510 1512 1513 1514 1516 1518 1519 1521 1522 1523 1524 1525 1526 1527 1527 1528 1528 1529 1529 1529 1530 1530 1530 1530 1530
1472 1474 1475 1476 1482 1493 1479 1483 1485 1473 1472 1473 1476 1479 1482 1486 1489 1492 1494 1497 1499 1502 1504 1506 1508 1509 1510 1512 1514 1516 1517 1519 1520 1521 1522 1524 1525 1526 1526 1527 1527 1528 1528 1528 1529 1529 1529 1529 1530
1473 1482 1492 1494 1496 1489 1468 1476 1479 1467 1465 1469 1473 1476 1480 1483 1487 1490 1492 1494 1497 1499 1501 1504 1505 1507 1508 1510 1513 1514 1515 1517 1518 1520 1521 1522 1523 1524 1525 1525 1526 1527 1527 1527 1527 1528 1528 1528 1528
1474 1477 1493 1500 1494 1483 1471 1476 1471 1462 1465 1468 1471 1474 1478 1481 1484 1487 1490 1492 1494 1497 1499 1501 1503 1505 1507 1509 1511 1512 1513 1515 1517 1518 1519 1520 1521 1522 1523 1524 1524 1525 1526 1526 1526 1526 1527 1527 1527
1474 1475 1471 1480 1480 1484 1477 1471 1467 1464 1465 1468 1470 1473 1476 1479 1482 1484 1487 1490 1492 1494 1496 1499 1501 1503 1505 1507 1509 1510 1512 1513 1515 1516 1518 1519 1520 1521 1521 1522 1523 1523 1524 1524 1525 1525 1526 1526 1526
1470 1471 1473 1480 1489 1491 1480 1475 1475 1469 1468 1469 1470 1472 1475 1477 1480 1482 1484 1487 1489 1491 1494 1496 1499 1501 1503 1505 1507 1508 1510 1512 1513 1514 1516 1517 1518 1519 1520 1520 1521 1521 1522 1522 1523 1523 1524 1524 1524
1471 1473 1473 1475 1476 1487 1490 1484 1463 1465 1466 1468 1469 1471 1473 1476 1478 1480 1482 1484 1487 1489 1492 1494 1497 1499 1500 1503 1505 1506 1508 1510 1511 1513 1514 1515 1516 1517 1518 1519 1519 1520 1520 1521 1521 1522 1522 1522 1522
1466 1469 1472 1483 1480 1475 1481 1482 1460 1463 1464 1466 1469 1470 1473 1474 1476 1478 1480 1482 1485 1487 1490 1492 1494 1496 1498 1500 1502 1504 1506 1508 1509 1510 1512 1513 1514 1515 1516 1517 1517 1518 1519 1519 1519 1520 1520 1521 1521